Total_Precipitation_Accumulation
1.42 1.64 1.53 1.00 0.99 1.26 1.44 1.32 1.89 1.81 1.83 3.56 2.32 1.39 1.19 1.15 1.41 1.58 1.16 0.67 0.34 0.28 0.39 0.73 0.73 0.81 0.91 0.50 0.28 0.24 0.32 0.71 0.82 0.63 0.22 0.21 0.44 0.49 0.56 1.01 0.68 0.79 0.54 0.23
1.30 1.54 1.27 0.91 1.26 1.65 1.99 1.58 1.63 2.48 1.39 1.57 0.93 0.90 1.25 1.38 1.48 1.42 1.00 0.63 0.31 0.20 0.24 0.51 0.34 0.41 0.35 0.24 0.15 0.07 0.21 0.61 0.69 0.78 0.55 0.39 0.62 0.47 0.58 0.61 0.91 1.01 0.83 0.16
1.33 1.30 0.96 0.88 1.09 1.46 1.62 1.66 2.02 3.14 2.64 0.70 0.38 0.77 1.18 1.23 1.16 1.11 0.75 0.67 0.36 0.30 0.22 0.12 0.10 0.15 0.23 0.30 0.35 0.19 0.18 0.29 0.53 0.59 0.53 0.53 0.69 0.49 0.50 0.86 1.14 0.58 0.39 0.08
1.50 1.05 0.64 0.58 0.71 1.06 1.00 1.15 1.03 0.91 1.00 0.43 0.24 0.72 1.03 1.22 1.28 0.83 0.79 0.76 0.31 0.25 0.24 0.10 0.07 0.09 0.19 0.28 0.49 0.50 0.41 0.37 0.55 0.59 0.34 0.35 0.77 0.60 0.53 0.87 0.55 0.52 0.15 0.06
1.54 0.90 0.47 0.42 0.58 1.20 1.11 0.88 0.57 0.23 0.13 0.07 0.13 0.48 0.91 1.21 0.79 0.68 0.68 0.53 0.28 0.28 0.20 0.08 0.05 0.10 0.15 0.27 0.36 0.45 0.34 0.35 0.35 0.50 0.45 0.69 0.55 0.33 0.41 0.32 0.32 0.25 0.05 0.03
1.36 0.78 0.67 0.75 1.05 1.71 1.57 0.80 0.47 0.28 0.16 0.12 0.23 0.31 0.68 0.75 0.71 0.63 0.34 0.38 0.35 0.21 0.11 0.08 0.04 0.07 0.05 0.12 0.20 0.17 0.20 0.17 0.29 0.73 0.53 0.57 0.51 0.39 0.23 0.18 0.23 0.12 0.10 0.03
1.14 0.62 0.57 0.55 0.60 1.02 1.29 0.75 0.65 0.38 0.21 0.09 0.14 0.17 0.39 0.60 0.64 0.69 0.44 0.36 0.34 0.15 0.14 0.13 0.06 0.05 0.06 0.05 0.06 0.10 0.15 0.10 0.21 0.49 0.27 0.47 0.30 0.29 0.42 0.24 0.18 0.05 0.05 0.01
0.78 0.46 0.49 0.62 0.65 0.80 0.70 0.57 0.67 0.38 0.26 0.09 0.11 0.12 0.23 0.42 0.49 0.59 0.50 0.33 0.28 0.24 0.35 0.29 0.23 0.25 0.23 0.11 0.04 0.05 0.05 0.11 0.23 0.37 0.43 0.18 0.06 0.12 0.17 0.12 0.06 0.05 0.05 0.01
0.47 0.30 0.25 0.29 0.29 0.35 0.46 0.61 0.64 0.41 0.28 0.12 0.06 0.08 0.13 0.45 0.64 0.72 0.53 0.37 0.20 0.29 0.45 0.32 0.27 0.34 0.17 0.10 0.06 0.04 0.04 0.05 0.28 0.23 0.23 0.08 0.02 0.00 0.00 0.13 0.26 0.04 0.03 0.02
0.46 0.42 0.34 0.30 0.31 0.38 0.38 0.56 0.57 0.51 0.31 0.04 0.05 0.09 0.15 0.36 0.69 0.87 0.61 0.41 0.37 0.41 0.54 0.29 0.06 0.07 0.03 0.04 0.04 0.06 0.16 0.17 0.22 0.20 0.25 0.02 0.00 0.00 0.00 0.05 0.13 0.06 0.03 0.01
0.52 0.52 0.35 0.24 0.25 0.39 0.35 0.30 0.51 0.48 0.30 0.06 0.03 0.06 0.13 0.14 0.43 1.05 0.83 0.57 0.48 0.48 0.54 0.30 0.07 0.01 0.01 0.01 0.00 0.00 0.05 0.08 0.10 0.06 0.08 0.01 0.00 0.00 0.02 0.03 0.00 0.00 0.00 0.01
0.33 0.40 0.28 0.24 0.28 0.46 0.49 0.26 0.32 0.50 0.38 0.10 0.04 0.04 0.06 0.10 0.26 0.71 0.82 0.58 0.46 0.30 0.33 0.15 0.06 0.02 0.01 0.00 0.02 0.00 0.01 0.00 0.00 0.00 0.01 0.00 0.00 0.00 0.00 0.00 0.00 0.00 0.00 0.00
0.36 0.34 0.30 0.26 0.27 0.45 0.61 0.29 0.30 0.46 0.40 0.13 0.05 0.03 0.02 0.02 0.12 0.30 0.78 0.69 0.57 0.43 0.17 0.22 0.10 0.06 0.02 0.02 0.01 0.00 0.00 0.00 0.00 0.00 0.00 0.00 0.00 0.00 0.00 0.01 0.04 0.01 0.00 0.00
0.36 0.34 0.34 0.26 0.26 0.40 0.56 0.25 0.31 0.41 0.34 0.19 0.04 0.02 0.04 0.04 0.15 0.29 0.51 0.73 0.52 0.46 0.27 0.41 0.31 0.15 0.03 0.02 0.01 0.00 0.00 0.00 0.00 0.00 0.00 0.00 0.00 0.00 0.00 0.07 0.06 0.00 0.00 0.00
0.31 0.32 0.29 0.22 0.27 0.44 0.41 0.17 0.40 0.33 0.42 0.50 0.09 0.03 0.04 0.02 0.16 0.34 0.51 0.77 0.58 0.51 0.48 0.35 0.27 0.20 0.10 0.03 0.00 0.01 0.00 0.00 0.00 0.03 0.00 0.00 0.00 0.00 0.05 0.04 0.03 0.02 0.00 0.03
0.24 0.22 0.22 0.23 0.33 0.68 0.55 0.46 0.43 0.46 0.41 0.75 0.22 0.03 0.03 0.02 0.21 0.45 0.53 0.54 0.51 0.55 0.54 0.36 0.18 0.12 0.16 0.16 0.05 0.01 0.00 0.00 0.00 0.00 0.00 0.00 0.00 0.00 0.00 0.03 0.02 0.02 0.01 0.02
0.30 0.28 0.25 0.27 0.47 0.63 0.67 0.35 0.46 0.42 0.65 0.63 0.21 0.09 0.06 0.06 0.26 0.52 0.64 0.43 0.47 0.65 0.71 0.42 0.18 0.16 0.28 0.19 0.03 0.01 0.00 0.00 0.00 0.00 0.00 0.00 0.00 0.00 0.00 0.00 0.01 0.04 0.05 0.04
0.41 0.45 0.48 0.49 0.59 0.64 0.39 0.13 0.32 0.57 0.86 0.58 0.36 0.13 0.10 0.16 0.54 0.67 0.63 0.63 0.54 0.69 0.57 0.34 0.18 0.19 0.33 0.25 0.01 0.00 0.00 0.00 0.00 0.00 0.00 0.00 0.00 0.00 0.01 0.04 0.09 0.10 0.06 0.02
0.65 0.63 0.58 0.65 0.40 0.29 0.27 0.33 0.57 0.54 0.96 0.94 0.38 0.22 0.27 0.22 0.57 0.58 0.72 0.65 0.75 0.54 0.34 0.24 0.37 0.27 0.16 0.03 0.00 0.00 0.00 0.00 0.00 0.00 0.00 0.00 0.00 0.02 0.07 0.12 0.09 0.03 0.01 0.00
0.86 0.93 0.80 0.64 0.31 0.52 0.85 0.95 0.99 1.15 0.73 0.38 0.28 0.12 0.29 0.29 0.49 0.53 0.73 0.72 0.70 0.54 0.29 0.31 0.38 0.24 0.09 0.02 0.00 0.00 0.00 0.00 0.00 0.00 0.00 0.01 0.04 0.07 0.05 0.02 0.00 0.00 0.00 0.00
1.50 1.42 0.89 0.77 0.93 1.22 1.18 0.99 0.68 0.55 0.41 0.17 0.11 0.14 0.32 0.27 0.59 0.68 0.52 0.78 0.57 0.52 0.37 0.62 0.49 0.32 0.09 0.00 0.00 0.00 0.00 0.00 0.00 0.00 0.00 0.00 0.01 0.00 0.00 0.00 0.00 0.00 0.00 0.00
1.05 0.76 0.94 0.91 0.92 1.03 0.84 0.63 0.40 0.28 0.14 0.22 0.30 0.26 0.28 0.34 0.48 0.76 0.78 0.58 0.70 0.42 0.38 0.62 0.37 0.14 0.02 0.01 0.01 0.00 0.00 0.00 0.00 0.00 0.00 0.00 0.00 0.00 0.00 0.01 0.00 0.00 0.00 0.00
1.20 1.61 1.62 0.98 0.79 0.52 0.37 0.46 0.56 0.51 0.38 0.43 0.44 0.41 0.28 0.42 0.64 0.57 0.73 0.70 0.43 0.31 0.42 0.24 0.08 0.04 0.02 0.02 0.03 0.03 0.05 0.01 0.01 0.01 0.01 0.01 0.01 0.03 0.03 0.04 0.02 0.01 0.01 0.02
2.40 2.17 1.50 0.48 0.54 0.19 0.35 0.36 0.38 0.45 0.47 0.46 0.48 0.58 0.46 0.40 0.62 0.51 0.38 0.36 0.43 0.37 0.16 0.11 0.09 0.05 0.02 0.03 0.07 0.07 0.13 0.23 0.23 0.16 0.08 0.07 0.06 0.07 0.08 0.08 0.07 0.04 0.03 0.04
2.05 1.15 0.52 0.18 0.10 0.08 0.18 0.24 0.24 0.31 0.36 0.38 0.44 0.51 0.44 0.55 0.63 0.43 0.35 0.42 0.31 0.15 0.14 0.25 0.18 0.13 0.10 0.14 0.18 0.18 0.20 0.34 0.46 0.49 0.45 0.43 0.36 0.33 0.26 0.16 0.12 0.12 0.07 0.05
1.57 0.80 0.26 0.07 0.04 0.07 0.13 0.20 0.24 0.29 0.32 0.29 0.34 0.34 0.45 0.56 0.51 0.47 0.43 0.47 0.36 0.31 0.35 0.37 0.28 0.30 0.28 0.26 0.19 0.16 0.13 0.11 0.12 0.12 0.14 0.16 0.17 0.22 0.24 0.22 0.19 0.21 0.20 0.16
1.31 0.40 0.04 0.02 0.03 0.07 0.13 0.18 0.19 0.15 0.19 0.29 0.31 0.26 0.30 0.39 0.49 0.49 0.54 0.60 0.42 0.22 0.12 0.23 0.25 0.32 0.37 0.40 0.30 0.27 0.20 0.14 0.09 0.07 0.07 0.06 0.06 0.07 0.07 0.06 0.08 0.12 0.23 0.31